AUA10A LOWW-EDDL

Flight info

Callsign AUA10A
Flight time N/A
Altitude 36000
Route BUWUT DCT DITIS DCT IPDUL DCT RAPET DCT MASEK DCT AMETU T852 EKSAK/N0362F260 T852 KULIX/N0352F240 T852 TINSA T854 DOMUX DOMUX1A
Aircraft A320/M-SDE3FGHIRWY/LB1

Departure

Time 2026-04-20 16:49
Airport Vienna International Airport (LOWW)

Arrival

Time N/A
Airport Düsseldorf Airport (EDDL)
Time Latitude Longitude Altitude Speed Heading
2026-04-20 16:33 48.11843 16.56930 609 ft 0 kts 206°
2026-04-20 16:38 48.11852 16.56937 628 ft 2 kts 203°
2026-04-20 16:38 48.11867 16.56947 625 ft 2 kts 204°
2026-04-20 16:38 48.11882 16.56956 617 ft 2 kts 199°
2026-04-20 16:39 48.11898 16.56963 621 ft 2 kts 185°
2026-04-20 16:39 48.11914 16.56960 619 ft 2 kts 120°
2026-04-20 16:39 48.11917 16.56952 623 ft 0 kts 115°
2026-04-20 16:44 48.11906 16.56985 618 ft 7 kts 116°
2026-04-20 16:44 48.11876 16.57078 609 ft 13 kts 116°
2026-04-20 16:44 48.11854 16.57214 609 ft 14 kts 107°
2026-04-20 16:45 48.11809 16.57340 618 ft 14 kts 137°
2026-04-20 16:45 48.11719 16.57383 615 ft 14 kts 164°
2026-04-20 16:45 48.11607 16.57431 616 ft 21 kts 164°
2026-04-20 16:45 48.11455 16.57433 610 ft 23 kts 206°
2026-04-20 16:46 48.11307 16.57327 610 ft 25 kts 206°
2026-04-20 16:46 48.11212 16.57283 614 ft 12 kts 153°
2026-04-20 16:46 48.11170 16.57395 611 ft 14 kts 116°
2026-04-20 16:46 48.11116 16.57559 614 ft 20 kts 116°
2026-04-20 16:47 48.11042 16.57648 610 ft 15 kts 201°
2026-04-20 16:47 48.11018 16.57629 617 ft 3 kts 206°
2026-04-20 16:47 48.10965 16.57589 615 ft 8 kts 206°
2026-04-20 16:47 48.10916 16.57545 616 ft 8 kts 217°
2026-04-20 16:48 48.10930 16.57482 612 ft 7 kts 296°
2026-04-20 16:48 48.10959 16.57392 618 ft 19 kts 295°
2026-04-20 16:48 48.11141 16.56835 609 ft 96 kts 296°
2026-04-20 16:48 48.11524 16.55659 619 ft 155 kts 296°
2026-04-20 16:49 48.12026 16.54091 1077 ft 168 kts 296°
2026-04-20 16:49 48.12161 16.52341 1819 ft 176 kts 262°
2026-04-20 16:49 48.11899 16.50492 2357 ft 191 kts 264°
2026-04-20 16:49 48.11650 16.48412 2736 ft 216 kts 264°
2026-04-20 16:50 48.11669 16.46076 3246 ft 237 kts 283°
2026-04-20 16:50 48.11965 16.43583 4116 ft 246 kts 282°
2026-04-20 16:50 48.12243 16.41031 5179 ft 250 kts 281°
2026-04-20 16:50 48.12514 16.38456 6266 ft 251 kts 281°
2026-04-20 16:51 48.12784 16.35855 7286 ft 253 kts 280°
2026-04-20 16:51 48.13056 16.33229 8258 ft 257 kts 280°
2026-04-20 16:51 48.13329 16.30604 9249 ft 260 kts 279°
2026-04-20 16:51 48.13845 16.28003 10174 ft 265 kts 297°
2026-04-20 16:52 48.15034 16.25731 10671 ft 288 kts 312°
2026-04-20 16:52 48.16472 16.23561 11410 ft 297 kts 313°
2026-04-20 16:52 48.17955 16.21378 12328 ft 300 kts 313°
2026-04-20 16:52 48.19455 16.19180 13239 ft 303 kts 314°
2026-04-20 16:53 48.20966 16.16957 14105 ft 306 kts 313°
2026-04-20 16:53 48.22464 16.14734 14872 ft 308 kts 313°
2026-04-20 16:53 48.23994 16.12446 15658 ft 311 kts 312°
2026-04-20 16:53 48.25536 16.10129 16426 ft 315 kts 312°
2026-04-20 16:54 48.27090 16.07788 17210 ft 318 kts 311°
2026-04-20 16:54 48.28662 16.05416 17992 ft 321 kts 311°
2026-04-20 16:54 48.30247 16.03024 18689 ft 324 kts 311°
2026-04-20 16:54 48.31845 16.00611 19368 ft 327 kts 311°
2026-04-20 16:55 48.33432 15.98212 20056 ft 329 kts 311°
2026-04-20 16:55 48.35056 15.95758 20734 ft 331 kts 311°
2026-04-20 16:55 48.36690 15.93286 21430 ft 334 kts 311°
2026-04-20 16:55 48.38336 15.90794 22118 ft 336 kts 311°
2026-04-20 16:56 48.39994 15.88281 22796 ft 339 kts 311°
2026-04-20 16:56 48.41644 15.85782 23470 ft 342 kts 311°
2026-04-20 16:56 48.43329 15.83227 24052 ft 345 kts 311°
2026-04-20 16:56 48.45037 15.80630 24518 ft 350 kts 311°
2026-04-20 16:57 48.46760 15.78009 25046 ft 353 kts 311°
2026-04-20 16:57 48.48478 15.75392 25584 ft 355 kts 311°
2026-04-20 16:57 48.50220 15.72735 26122 ft 357 kts 311°
2026-04-20 16:57 48.51974 15.70058 26697 ft 358 kts 311°
2026-04-20 16:58 48.53726 15.67379 27237 ft 360 kts 311°
2026-04-20 16:58 48.55489 15.64680 27745 ft 362 kts 311°
2026-04-20 16:58 48.57265 15.61957 28235 ft 364 kts 311°
2026-04-20 16:58 48.59050 15.59220 28719 ft 367 kts 311°
2026-04-20 16:59 48.60851 15.56458 29190 ft 369 kts 311°
2026-04-20 16:59 48.62638 15.53715 29644 ft 371 kts 311°
2026-04-20 16:59 48.64457 15.50918 30098 ft 374 kts 311°
2026-04-20 16:59 48.66298 15.48089 30469 ft 376 kts 311°
2026-04-20 17:00 48.69972 15.42434 31248 ft 379 kts 311°
2026-04-20 17:00 48.71825 15.39577 31708 ft 380 kts 311°
2026-04-20 17:00 48.73682 15.36709 32061 ft 383 kts 311°
2026-04-20 17:01 48.75555 15.33808 32490 ft 384 kts 311°
2026-04-20 17:01 48.77421 15.30915 32942 ft 384 kts 311°
2026-04-20 17:01 48.79267 15.28050 33394 ft 384 kts 311°
2026-04-20 17:01 48.81139 15.25149 33830 ft 384 kts 311°
2026-04-20 17:02 48.83013 15.22242 34207 ft 384 kts 311°
2026-04-20 17:02 48.84880 15.19337 34535 ft 385 kts 311°
2026-04-20 17:02 48.86751 15.16422 34852 ft 385 kts 312°
2026-04-20 17:02 48.88630 15.13492 35173 ft 386 kts 311°
2026-04-20 17:03 48.90316 15.10396 35466 ft 384 kts 302°
2026-04-20 17:03 48.91745 15.06953 35754 ft 384 kts 301°
2026-04-20 17:03 48.93162 15.03497 35976 ft 386 kts 301°
2026-04-20 17:04 48.95957 14.96713 36032 ft 370 kts 301°
2026-04-20 17:04 48.98672 14.90122 36032 ft 366 kts 301°
2026-04-20 17:05 49.01345 14.83586 36052 ft 366 kts 301°
2026-04-20 17:05 49.04053 14.76953 36033 ft 369 kts 301°
2026-04-20 17:06 49.06754 14.70337 36031 ft 369 kts 301°
2026-04-20 17:06 49.09460 14.63672 36022 ft 369 kts 301°
2026-04-20 17:07 49.12158 14.56999 36023 ft 368 kts 301°
2026-04-20 17:07 49.14835 14.50387 36028 ft 368 kts 301°
2026-04-20 17:08 49.17528 14.43727 36032 ft 368 kts 301°
2026-04-20 17:08 49.20213 14.37046 36030 ft 368 kts 301°
2026-04-20 17:09 49.22877 14.30406 36015 ft 368 kts 301°
2026-04-20 17:09 49.25553 14.23713 36021 ft 367 kts 301°
2026-04-20 17:10 49.28205 14.17071 36024 ft 367 kts 301°
2026-04-20 17:10 49.30875 14.10390 36031 ft 367 kts 301°
2026-04-20 17:11 49.33533 14.03701 36032 ft 367 kts 301°
2026-04-20 17:11 49.36188 13.97004 36030 ft 367 kts 301°
2026-04-20 17:12 49.38829 13.90317 36016 ft 368 kts 301°
2026-04-20 17:12 49.41449 13.83666 36024 ft 369 kts 301°
2026-04-20 17:12 49.42930 13.80440 34944 ft 368 kts 316°
2026-04-20 17:13 49.44572 13.77378 36156 ft 375 kts 309°
2026-04-20 17:13 49.47854 13.71233 36061 ft 369 kts 308°
2026-04-20 17:14 49.51086 13.65155 36067 ft 369 kts 308°
2026-04-20 17:14 49.54337 13.59014 36071 ft 369 kts 308°
2026-04-20 17:15 49.57565 13.52912 36071 ft 369 kts 308°
2026-04-20 17:15 49.60810 13.46767 36079 ft 369 kts 308°
2026-04-20 17:16 49.64050 13.40619 36084 ft 369 kts 308°
2026-04-20 17:16 49.67271 13.34479 36082 ft 370 kts 308°
2026-04-20 17:17 49.70514 13.28285 36076 ft 370 kts 308°
2026-04-20 17:17 49.73763 13.22078 36066 ft 371 kts 308°
2026-04-20 17:18 49.76984 13.15905 36065 ft 371 kts 308°
2026-04-20 17:18 49.80228 13.09679 36053 ft 371 kts 308°
2026-04-20 17:19 49.83461 13.03453 36059 ft 371 kts 308°
2026-04-20 17:19 49.86654 12.97275 36071 ft 362 kts 308°
2026-04-20 17:20 49.89761 12.91264 36074 ft 354 kts 308°
2026-04-20 17:20 49.92812 12.85342 36067 ft 352 kts 308°
2026-04-20 17:21 49.95885 12.79372 36074 ft 354 kts 308°
2026-04-20 17:21 49.98960 12.73369 36071 ft 355 kts 308°
2026-04-20 17:22 50.02011 12.67396 36071 ft 355 kts 308°
2026-04-20 17:22 50.05082 12.61386 36069 ft 355 kts 308°
2026-04-20 17:23 50.08162 12.55350 36070 ft 355 kts 308°
2026-04-20 17:23 50.11214 12.49356 36079 ft 355 kts 308°
2026-04-20 17:24 50.14276 12.43316 36069 ft 354 kts 308°
2026-04-20 17:24 50.17310 12.37300 36080 ft 354 kts 308°
2026-04-20 17:25 50.19733 12.30648 36091 ft 354 kts 289°
2026-04-20 17:25 50.21262 12.23304 36090 ft 355 kts 289°
2026-04-20 17:26 50.22786 12.16017 36083 ft 355 kts 289°
2026-04-20 17:26 50.24322 12.08680 36080 ft 355 kts 289°
2026-04-20 17:27 50.25841 12.01384 36069 ft 355 kts 289°
2026-04-20 17:27 50.27109 11.95258 36058 ft 356 kts 289°
2026-04-20 17:28 50.28642 11.87825 36083 ft 364 kts 289°
2026-04-20 17:28 50.30225 11.80130 36085 ft 375 kts 289°
2026-04-20 17:29 50.31809 11.72379 36084 ft 377 kts 289°
2026-04-20 17:29 50.33401 11.64557 36089 ft 377 kts 289°
2026-04-20 17:30 50.34995 11.56724 36092 ft 377 kts 289°
2026-04-20 17:30 50.36582 11.48896 36099 ft 376 kts 289°
2026-04-20 17:31 50.38149 11.41129 36104 ft 376 kts 289°
2026-04-20 17:31 50.39718 11.33296 36108 ft 376 kts 289°
2026-04-20 17:32 50.41278 11.25452 36108 ft 376 kts 289°
2026-04-20 17:32 50.42829 11.17678 36105 ft 375 kts 289°
2026-04-20 17:33 50.44387 11.09838 36098 ft 375 kts 288°
2026-04-20 17:33 50.45935 11.02012 36100 ft 375 kts 288°
2026-04-20 17:34 50.47471 10.94186 36111 ft 375 kts 288°
2026-04-20 17:34 50.48999 10.86385 36111 ft 375 kts 288°
2026-04-20 17:35 50.50531 10.78529 36113 ft 375 kts 288°
2026-04-20 17:35 50.52044 10.70720 36102 ft 375 kts 288°
2026-04-20 17:36 50.53566 10.62858 36112 ft 375 kts 288°
2026-04-20 17:36 50.55069 10.55064 36117 ft 374 kts 288°
2026-04-20 17:37 50.56576 10.47220 36120 ft 374 kts 288°
2026-04-20 17:37 50.58080 10.39360 36122 ft 374 kts 288°
2026-04-20 17:38 50.59563 10.31550 36124 ft 374 kts 288°
2026-04-20 17:38 50.61049 10.23690 36122 ft 374 kts 287°
2026-04-20 17:39 50.62530 10.15821 36121 ft 374 kts 287°
2026-04-20 17:39 50.64219 10.08067 36124 ft 374 kts 292°
2026-04-20 17:40 50.66198 10.00471 36128 ft 374 kts 293°
2026-04-20 17:40 50.68203 9.92904 36133 ft 374 kts 293°
2026-04-20 17:41 50.70169 9.85359 36136 ft 374 kts 292°
2026-04-20 17:41 50.72131 9.77728 36127 ft 374 kts 292°
2026-04-20 17:42 50.74071 9.70134 36130 ft 374 kts 292°
2026-04-20 17:42 50.76021 9.62498 36132 ft 374 kts 292°
2026-04-20 17:43 50.77968 9.54901 36135 ft 374 kts 292°
2026-04-20 17:43 50.79915 9.47236 36013 ft 383 kts 292°
2026-04-20 17:43 50.80930 9.43226 35769 ft 399 kts 292°
2026-04-20 17:44 50.81971 9.39104 35517 ft 406 kts 292°
2026-04-20 17:44 50.83021 9.34946 35230 ft 406 kts 292°
2026-04-20 17:44 50.84068 9.30799 34926 ft 404 kts 292°
2026-04-20 17:44 50.85104 9.26679 34623 ft 401 kts 292°
2026-04-20 17:45 50.85785 9.23961 34429 ft 400 kts 292°
2026-04-20 17:45 50.87138 9.18559 34012 ft 396 kts 292°
2026-04-20 17:45 50.88154 9.14493 33652 ft 394 kts 292°
2026-04-20 17:45 50.89158 9.10468 33302 ft 392 kts 292°
2026-04-20 17:46 50.90156 9.06459 32950 ft 391 kts 292°
2026-04-20 17:46 50.91151 9.02454 32615 ft 389 kts 292°
2026-04-20 17:46 50.92127 8.98518 32281 ft 388 kts 291°
2026-04-20 17:46 50.93116 8.94529 31944 ft 387 kts 291°
2026-04-20 17:47 50.94101 8.90557 31618 ft 385 kts 291°
2026-04-20 17:47 50.95079 8.86596 31283 ft 384 kts 291°
2026-04-20 17:47 50.96037 8.82704 30942 ft 382 kts 291°
2026-04-20 17:47 50.97008 8.78763 30579 ft 381 kts 291°
2026-04-20 17:48 50.97965 8.74862 30209 ft 378 kts 291°
2026-04-20 17:48 50.98914 8.70976 29768 ft 377 kts 291°
2026-04-20 17:48 50.99866 8.67090 29330 ft 376 kts 291°
2026-04-20 17:48 51.00949 8.63309 28900 ft 375 kts 300°
2026-04-20 17:49 51.02414 8.59952 28469 ft 376 kts 311°
2026-04-20 17:49 51.04294 8.57038 28127 ft 377 kts 322°
2026-04-20 17:49 51.06460 8.54678 27855 ft 377 kts 328°
2026-04-20 17:49 51.08667 8.52406 27590 ft 378 kts 327°
2026-04-20 17:50 51.10876 8.50120 27315 ft 378 kts 328°
2026-04-20 17:50 51.13076 8.47836 27055 ft 379 kts 328°
2026-04-20 17:50 51.15262 8.45555 26794 ft 379 kts 328°
2026-04-20 17:50 51.17464 8.43253 26521 ft 377 kts 328°
2026-04-20 17:51 51.19661 8.40953 26262 ft 376 kts 328°
2026-04-20 17:51 51.21837 8.38673 26017 ft 374 kts 328°
2026-04-20 17:51 51.24015 8.36394 25764 ft 374 kts 328°
2026-04-20 17:51 51.26173 8.34141 25513 ft 373 kts 328°
2026-04-20 17:52 51.28343 8.31873 25254 ft 372 kts 328°
2026-04-20 17:52 51.30504 8.29602 25005 ft 370 kts 328°
2026-04-20 17:52 51.32656 8.27331 24757 ft 369 kts 328°
2026-04-20 17:52 51.34801 8.25067 24521 ft 369 kts 328°
2026-04-20 17:53 51.36924 8.22829 24284 ft 368 kts 329°
2026-04-20 17:53 51.39060 8.20579 24020 ft 365 kts 329°
2026-04-20 17:53 51.41174 8.18351 23547 ft 363 kts 329°
2026-04-20 17:53 51.43288 8.16126 23034 ft 363 kts 329°
2026-04-20 17:54 51.45398 8.13905 22521 ft 362 kts 329°
2026-04-20 17:54 51.47442 8.11629 22038 ft 362 kts 321°
2026-04-20 17:54 51.49082 8.08579 21549 ft 363 kts 301°
2026-04-20 17:54 51.50036 8.04838 21060 ft 362 kts 282°
2026-04-20 17:55 51.50217 8.00824 20573 ft 360 kts 263°
2026-04-20 17:55 51.49697 7.96903 20088 ft 358 kts 252°
2026-04-20 17:55 51.49028 7.93057 19621 ft 357 kts 252°
2026-04-20 17:55 51.48349 7.89228 19164 ft 356 kts 252°
2026-04-20 17:56 51.47671 7.85417 18733 ft 354 kts 252°
2026-04-20 17:56 51.47001 7.81671 18296 ft 353 kts 252°
2026-04-20 17:56 51.46327 7.77894 17862 ft 350 kts 253°
2026-04-20 17:56 51.45662 7.74148 17448 ft 347 kts 253°
2026-04-20 17:57 51.45002 7.70444 17043 ft 344 kts 253°
2026-04-20 17:57 51.44341 7.66763 16649 ft 341 kts 253°
2026-04-20 17:57 51.43692 7.63158 16266 ft 339 kts 253°
2026-04-20 17:57 51.43039 7.59536 15878 ft 337 kts 253°
2026-04-20 17:58 51.42388 7.55931 15491 ft 335 kts 253°
2026-04-20 17:58 51.41741 7.52346 15111 ft 334 kts 253°
2026-04-20 17:58 51.41115 7.48770 14730 ft 332 kts 254°
2026-04-20 17:58 51.40506 7.45206 14346 ft 331 kts 254°
2026-04-20 17:59 51.39904 7.41650 13968 ft 330 kts 254°
2026-04-20 17:59 51.39303 7.38110 13560 ft 328 kts 255°
2026-04-20 17:59 51.38712 7.34643 13183 ft 325 kts 255°
2026-04-20 17:59 51.38116 7.31159 12797 ft 323 kts 255°
2026-04-20 18:00 51.37522 7.27706 12423 ft 320 kts 255°
2026-04-20 18:00 51.36929 7.24280 12041 ft 318 kts 255°
2026-04-20 18:00 51.36336 7.20872 11659 ft 316 kts 255°
2026-04-20 18:00 51.35747 7.17495 11275 ft 314 kts 255°
2026-04-20 18:01 51.35166 7.14171 10890 ft 312 kts 255°
2026-04-20 18:01 51.34583 7.10844 10510 ft 310 kts 256°
2026-04-20 18:01 51.34000 7.07525 10114 ft 308 kts 256°
2026-04-20 18:01 51.33428 7.04276 9915 ft 298 kts 256°
2026-04-20 18:02 51.32870 7.01101 9528 ft 296 kts 256°
2026-04-20 18:02 51.32318 6.97947 9120 ft 294 kts 256°
2026-04-20 18:02 51.31767 6.94820 8719 ft 291 kts 256°
2026-04-20 18:02 51.31217 6.91711 8316 ft 289 kts 256°
2026-04-20 18:03 51.30678 6.88667 7940 ft 286 kts 256°
2026-04-20 18:03 51.30136 6.85625 7556 ft 283 kts 255°
2026-04-20 18:03 51.29241 6.82888 7277 ft 278 kts 229°
2026-04-20 18:03 51.27656 6.81140 7173 ft 281 kts 200°
2026-04-20 18:04 51.25724 6.80776 7193 ft 281 kts 172°
2026-04-20 18:04 51.23921 6.81843 7192 ft 282 kts 144°
2026-04-20 18:04 51.22331 6.83676 7177 ft 281 kts 149°
2026-04-20 18:04 51.20466 6.84572 7189 ft 282 kts 177°
2026-04-20 18:05 51.17000 6.82147 7193 ft 279 kts 230°
2026-04-20 18:05 51.15761 6.79798 6967 ft 275 kts 233°
2026-04-20 18:05 51.14579 6.77459 6565 ft 274 kts 233°
2026-04-20 18:06 51.13405 6.75093 6137 ft 272 kts 233°
2026-04-20 18:06 51.12229 6.72725 5667 ft 271 kts 233°
2026-04-20 18:06 51.11062 6.70377 5219 ft 270 kts 233°
2026-04-20 18:06 51.09947 6.67983 4792 ft 267 kts 243°
2026-04-20 18:07 51.09515 6.65219 4606 ft 251 kts 275°
2026-04-20 18:07 51.09975 6.62649 4240 ft 238 kts 305°
2026-04-20 18:07 51.11065 6.60789 3755 ft 230 kts 321°
2026-04-20 18:07 51.12290 6.59176 3261 ft 226 kts 323°
2026-04-20 18:08 51.13491 6.57639 3009 ft 217 kts 323°
2026-04-20 18:08 51.14685 6.56142 3010 ft 219 kts 327°
2026-04-20 18:08 51.16094 6.55367 3004 ft 215 kts
2026-04-20 18:08 51.17483 6.55862 3010 ft 197 kts 21°
2026-04-20 18:09 51.18695 6.56642 3003 ft 184 kts 23°